Wind_Speed
42 40 42 46 44 49 52 54 45 50 57 59 55 53 39 33 24 16 13 9 8 9 9 6 7 5 7 9 8 6 5 5 6 8 11 11 12 15 16 16 15 14 14 13 12 13 16 15 12
43 45 44 47 48 50 46 48 51 48 51 53 56 53 54 44 30 20 14 15 11 11 12 10 8 10 13 15 14 14 10 6 5 7 8 9 11 15 18 16 14 17 16 16 16 14 14 15 15
40 42 43 48 47 46 43 47 48 52 49 45 51 54 55 52 47 38 27 21 19 19 17 16 13 11 9 7 7 8 11 10 9 9 9 12 11 13 14 14 14 17 18 17 17 17 16 16 14
40 43 41 45 45 36 40 43 44 46 48 42 43 44 47 50 50 48 43 31 28 22 20 22 18 16 12 14 14 11 8 12 14 13 14 15 15 15 15 15 17 18 19 20 20 19 18 15 17
39 45 41 42 44 37 37 39 42 46 46 40 40 43 47 44 46 45 48 40 36 28 25 23 21 19 17 19 20 23 23 17 13 16 18 17 19 18 17 17 18 20 20 20 22 20 18 18 18
37 43 44 44 40 30 28 36 39 38 45 50 40 39 42 44 45 45 43 43 42 33 27 25 26 26 27 25 28 24 24 23 22 18 18 17 15 15 19 20 22 21 24 24 23 24 21 21 21
38 41 46 46 46 32 36 33 31 38 37 43 49 36 36 38 39 41 40 39 36 37 33 22 18 19 22 24 25 25 25 23 24 26 28 28 24 21 23 24 18 17 23 24 24 25 25 23 25
41 40 47 48 48 41 36 31 37 33 34 34 36 42 35 36 35 35 35 40 35 36 36 29 21 20 22 22 23 27 28 29 28 29 31 32 31 30 31 28 27 24 25 25 27 28 28 27 28
47 43 50 46 43 38 41 36 36 31 31 32 33 33 36 35 37 31 29 33 32 30 32 28 28 24 23 22 22 24 24 27 31 33 35 34 32 33 31 31 32 32 31 30 32 30 29 30 29
43 45 52 53 45 43 44 47 36 30 27 31 30 38 33 32 33 32 24 27 33 27 26 26 27 24 19 21 19 21 24 26 27 28 30 33 34 34 36 38 37 37 34 34 33 32 33 30 31
49 49 53 53 45 52 51 43 39 29 29 31 32 36 41 32 35 33 25 19 28 26 26 21 22 22 25 25 19 17 19 21 27 28 27 30 32 35 35 33 35 38 40 40 37 35 34 33 33
58 53 51 52 55 55 55 49 43 40 40 28 32 33 36 36 33 31 30 25 24 29 25 22 29 28 26 14 21 21 14 14 21 25 30 30 31 30 35 41 39 37 36 38 38 37 38 37 38
62 56 60 57 55 57 58 53 47 50 41 32 36 33 37 36 39 31 27 28 27 29 30 32 30 25 22 16 18 22 17 17 15 17 24 31 35 37 38 40 40 38 39 38 35 33 36 43 41
61 63 63 55 52 55 56 56 54 55 43 39 36 43 39 39 39 37 28 22 26 30 33 31 30 30 29 27 25 29 27 26 22 18 23 25 32 35 39 41 42 43 42 42 44 45 42 41 39
64 64 63 57 53 53 52 53 55 53 47 44 49 42 40 42 41 38 33 31 29 32 32 34 35 38 39 37 37 35 33 31 34 36 32 34 33 33 35 38 43 46 46 43 43 44 46 44 43
60 64 66 59 54 52 52 51 54 54 48 46 46 44 45 44 39 39 38 38 37 36 33 34 39 40 43 46 48 47 42 38 33 35 36 35 38 39 39 42 42 45 46 47 46 44 45 45 45
63 65 71 60 54 55 54 53 54 54 49 49 48 45 46 49 49 43 44 46 44 42 38 36 35 42 47 51 51 51 53 50 46 45 43 43 43 44 45 45 45 41 43 44 48 45 49 53 54
62 63 67 66 70 62 54 56 53 55 53 48 47 46 48 50 50 48 50 52 51 47 44 41 39 37 44 51 53 53 57 56 56 54 53 52 51 48 49 50 49 52 52 51 51 52 52 54 54
68 68 69 74 71 63 54 59 57 56 58 56 52 52 50 51 50 51 53 55 55 54 52 48 46 42 40 43 49 53 57 59 60 60 59 58 57 58 58 58 57 57 58 60 58 57 60 61 60
71 72 73 77 72 67 59 60 60 59 55 59 55 54 53 52 52 52 55 57 58 58 58 56 52 49 47 43 47 53 54 57 60 63 64 65 65 64 66 66 66 67 69 67 66 67 68 68 70
76 73 72 70 71 70 63 61 62 64 62 59 59 56 57 55 53 51 53 59 62 59 59 60 59 58 54 52 52 55 52 58 61 62 62 63 65 66 67 69 70 70 70 71 71 72 73 74 76
79 77 72 72 71 72 70 62 68 66 66 66 63 62 62 58 52 51 53 57 60 62 63 64 61 63 65 65 60 62 63 60 62 65 66 66 65 67 70 71 71 72 73 74 75 76 77 80 80
77 78 76 74 75 75 77 73 66 73 72 72 70 66 61 59 57 56 56 59 55 59 61 62 63 64 66 68 70 68 70 68 70 70 70 70 69 71 73 75 76 77 79 82 83 82 81 81 83
78 79 79 81 80 77 79 75 65 70 72 70 67 69 66 62 61 63 62 62 55 59 60 62 65 67 69 69 68 71 76 78 78 75 73 74 73 72 74 77 79 80 80 81 81 83 86 89 89
82 83 86 81 79 74 68 65 64 68 68 65 64 64 65 63 63 67 67 59 58 60 60 62 66 71 73 71 70 73 76 77 80 77 76 75 75 77 78 79 81 84 85 86 87 89 91 91 94
86 85 82 75 69 63 59 56 57 60 60 60 63 65 65 66 64 64 63 60 59 57 61 65 68 72 72 73 70 66 65 72 72 72 75 76 78 81 82 83 84 86 87 90 92 95 96 97 97
79 72 66 56 49 40 40 38 43 51 58 63 67 65 63 61 59 58 60 58 61 60 60 64 69 71 72 71 69 64 65 64 68 72 74 78 82 83 86 86 87 88 91 95 97 98 99 99 105
62 59 53 47 42 33 35 31 38 48 52 53 51 50 55 56 56 56 58 63 66 67 68 67 69 71 72 73 70 68 69 72 73 76 79 80 83 85 87 90 91 94 97 100 100 102 105 108 110
50 49 51 49 51 45 39 42 56 55 54 52 54 59 58 61 62 62 63 67 67 67 68 69 72 74 75 73 72 74 76 77 79 83 83 84 86 89 92 94 97 98 99 102 105 106 108 111 116
51 56 59 64 63 64 59 54 64 70 68 64 63 63 65 69 72 72 72 71 68 69 70 73 73 75 77 76 76 78 79 81 84 86 87 89 91 93 97 101 102 103 105 107 110 110 115 117 116
Wind_Direction
14 9 9 14 15 13 13 14 18 25 21 24 29 36 26 14 2 332 330 335 338 318 305 307 311 312 300 303 254 242 258 258 260 257 256 259 270 274 267 258 249 231 221 234 261 266 262 253 247
16 10 11 12 10 7 14 14 16 19 23 19 24 28 37 34 15 358 323 319 320 304 294 297 298 304 300 289 263 257 266 275 274 251 243 255 270 267 263 256 237 226 228 246 258 263 266 256 250
13 12 10 5 5 8 7 13 14 14 16 27 20 19 26 34 37 23 359 338 311 312 302 287 290 288 296 310 273 267 261 271 267 256 248 255 255 252 247 229 224 227 238 256 262 268 272 270 276
3 5 5 359 1 9 6 5 11 7 8 17 21 18 15 23 29 31 27 5 344 325 313 302 288 292 266 275 271 268 261 259 257 250 246 245 254 251 240 242 240 244 253 258 264 271 271 280 282
350 354 354 358 356 359 6 359 3 6 9 12 15 16 15 20 21 22 27 29 17 352 332 318 295 286 278 275 274 275 282 269 273 256 260 260 257 251 253 260 261 263 267 269 268 273 285 287 293
344 353 353 350 350 353 357 356 352 360 5 5 13 14 10 8 8 17 18 23 25 17 348 333 312 302 304 290 292 276 281 280 273 265 258 259 270 264 256 266 268 267 264 264 266 270 276 283 288
339 341 348 350 342 346 345 352 350 346 358 358 359 8 7 9 6 7 14 10 18 27 28 11 340 317 303 289 283 287 289 280 280 271 277 269 258 254 254 256 267 278 272 269 268 270 273 278 286
328 331 338 342 342 338 346 338 342 338 341 349 352 350 358 5 4 4 5 6 3 9 15 28 20 357 337 324 305 286 278 275 274 275 268 266 268 274 258 263 269 269 279 278 274 273 274 276 282
330 326 333 336 335 341 342 334 335 335 332 336 344 350 352 354 359 357 2 6 3 355 360 10 17 13 15 0 323 313 305 291 287 286 276 271 271 278 278 276 269 267 264 268 271 266 270 277 279
326 321 327 330 329 335 336 335 328 331 327 326 334 337 344 345 351 356 342 347 356 351 345 354 359 6 11 12 360 337 301 294 291 286 273 269 269 269 273 278 281 279 274 275 270 267 273 270 274
320 319 323 328 325 325 328 329 329 325 317 313 320 324 331 334 340 342 346 316 340 341 330 332 339 345 357 353 353 355 344 319 296 289 279 275 273 273 274 274 273 278 278 276 273 273 270 271 273
312 316 320 322 321 323 325 324 324 323 322 303 308 312 321 327 333 334 334 332 314 323 318 293 320 326 329 342 335 331 332 337 336 295 283 278 274 273 268 269 276 273 275 277 269 267 268 269 272
314 313 317 317 320 319 320 320 319 322 321 297 303 306 312 318 323 325 316 318 320 317 309 309 285 284 295 291 306 308 301 301 316 303 292 283 279 276 272 270 275 274 275 275 273 272 270 263 265
311 310 313 313 317 312 316 318 316 317 315 302 299 306 303 308 315 319 311 304 312 311 303 290 287 288 285 282 290 301 283 290 274 276 284 271 275 277 276 278 280 277 272 269 270 272 270 266 264
312 313 312 308 308 310 309 314 313 312 310 307 305 305 293 301 305 310 299 299 304 303 299 297 299 302 302 299 286 296 299 279 266 273 271 268 269 275 276 282 277 276 277 275 276 271 270 272 271
306 306 308 302 308 306 310 311 307 307 304 304 303 298 291 298 298 297 294 295 302 308 291 292 293 297 300 302 302 300 298 291 275 259 256 261 263 269 275 275 277 280 282 286 282 279 272 270 269
299 303 303 297 304 307 307 305 305 304 297 299 299 300 288 296 300 290 289 292 296 302 300 295 291 292 294 296 301 301 296 294 288 277 271 263 261 263 264 270 270 269 270 272 275 275 276 272 270
298 299 297 295 305 302 303 300 301 297 294 294 294 292 289 290 294 293 290 291 292 295 301 291 291 285 289 293 294 297 295 294 293 290 282 280 279 276 276 276 277 276 278 277 275 272 273 271 268
292 293 289 294 300 300 301 297 296 295 294 293 292 289 283 285 288 288 289 290 292 291 294 290 288 280 279 282 288 292 292 291 288 289 286 283 279 277 276 277 277 276 279 278 278 277 275 274 271
292 289 289 292 294 296 297 292 293 290 288 290 290 288 286 285 289 290 287 288 292 292 288 286 285 281 280 275 278 282 281 283 285 287 285 283 282 281 280 279 276 276 276 278 280 279 280 280 278
289 288 289 290 292 293 292 290 291 289 288 284 287 287 288 287 288 284 284 285 288 289 287 287 288 289 284 283 278 274 278 276 275 276 277 279 281 283 284 284 284 283 282 280 278 279 279 279 274
288 286 285 289 290 289 290 287 286 285 285 282 284 285 285 285 285 285 283 280 282 285 289 289 288 289 288 288 287 285 279 280 277 279 278 282 281 279 278 277 276 276 277 275 275 278 277 275 275
285 282 284 286 286 285 285 285 279 283 282 282 282 284 283 284 285 284 284 285 284 279 282 280 282 286 286 290 288 289 285 284 281 284 283 283 282 281 280 280 279 279 278 277 277 276 275 277 276
280 279 281 286 285 284 283 283 276 274 277 280 281 280 280 283 283 284 287 291 282 276 277 278 278 279 278 279 281 285 287 286 287 287 286 285 282 281 282 283 283 283 281 279 276 276 276 276 277
282 283 286 287 283 281 279 275 272 270 273 276 276 278 281 282 283 287 290 285 273 274 273 271 274 276 277 279 279 282 282 281 284 284 285 284 284 286 286 285 285 284 280 276 274 275 278 277 278
283 285 285 282 280 280 279 277 276 274 273 272 274 277 279 281 284 286 286 278 277 275 271 271 274 273 274 276 279 278 283 283 283 281 282 283 285 285 285 284 284 283 282 280 279 280 280 279 281
281 279 280 283 279 285 287 282 276 268 265 270 277 277 277 279 281 283 281 281 283 278 274 273 273 276 278 282 283 284 283 279 279 281 283 285 283 284 284 284 282 282 281 280 281 280 281 282 281
275 277 282 286 283 282 282 289 288 282 279 278 282 283 280 280 282 280 280 279 281 280 278 278 279 278 280 284 282 283 282 282 281 282 283 283 282 282 281 281 281 281 281 280 279 280 280 281 284
282 284 301 302 301 302 281 304 293 286 288 290 288 286 282 281 277 276 275 275 280 279 279 279 280 280 280 283 282 281 281 281 282 283 283 283 282 281 281 282 283 282 282 281 282 284 284 284 286
305 309 307 307 304 301 303 297 291 295 294 295 291 286 276 274 276 280 281 284 284 284 284 279 279 280 282 281 280 280 281 281 283 283 283 283 283 282 282 284 285 285 283 283 284 285 285 287 289
Height
10896 10892 10887 10883 10878 10874 10870 10865 10860 10855 10850 10845 10838 10831 10826 10823 10822 10821 10818 10818 10818 10817 10816 10815 10816 10816 10816 10816 10815 10815 10816 10816 10816 10815 10815 10815 10815 10815 10815 10815 10814 10814 10814 10813 10814 10814 10814 10814 10813
10895 10892 10889 10885 10881 10876 10871 10866 10862 10857 10853 10847 10842 10837 10831 10827 10823 10821 10820 10818 10818 10817 10816 10815 10815 10816 10815 10814 10814 10814 10815 10814 10814 10813 10812 10813 10813 10812 10812 10812 10811 10811 10811 10809 10809 10809 10809 10810 10810
10894 10891 10888 10884 10880 10875 10872 10869 10863 10857 10855 10851 10845 10840 10836 10831 10826 10822 10820 10819 10817 10817 10816 10815 10814 10814 10815 10814 10813 10812 10814 10813 10812 10811 10810 10810 10810 10810 10809 10809 10808 10808 10808 10807 10806 10805 10804 10805 10805
10894 10891 10887 10882 10879 10875 10869 10866 10864 10861 10856 10853 10850 10845 10840 10835 10829 10824 10821 10817 10816 10815 10815 10815 10814 10813 10813 10813 10813 10812 10812 10811 10810 10808 10808 10808 10808 10807 10807 10807 10806 10805 10805 10803 10802 10801 10800 10799 10800
10893 10892 10887 10884 10879 10875 10870 10863 10858 10857 10854 10852 10850 10846 10840 10835 10833 10828 10824 10819 10816 10813 10812 10812 10812 10812 10812 10812 10812 10811 10810 10809 10808 10808 10807 10805 10805 10804 10804 10804 10804 10803 10802 10801 10800 10798 10797 10796 10795
10892 10890 10885 10882 10878 10874 10870 10865 10858 10854 10854 10850 10846 10844 10841 10836 10832 10827 10824 10822 10818 10813 10813 10812 10810 10810 10810 10808 10807 10806 10805 10806 10806 10805 10804 10803 10802 10801 10800 10801 10800 10799 10798 10797 10796 10794 10794 10792 10791
10888 10886 10885 10882 10878 10873 10867 10863 10857 10851 10848 10846 10845 10841 10838 10834 10830 10827 10824 10822 10819 10816 10812 10809 10807 10806 10805 10804 10804 10804 10803 10802 10801 10800 10799 10797 10795 10795 10794 10794 10794 10793 10793 10792 10792 10790 10789 10788 10786
10886 10882 10882 10878 10875 10870 10867 10862 10858 10850 10843 10842 10840 10839 10835 10831 10826 10824 10822 10820 10818 10815 10811 10807 10805 10803 10802 10800 10799 10800 10799 10797 10795 10794 10792 10791 10790 10789 10789 10789 10788 10787 10786 10786 10785 10785 10784 10783 10781
10883 10878 10876 10874 10871 10867 10863 10857 10853 10848 10841 10836 10834 10834 10830 10827 10824 10820 10817 10816 10816 10812 10809 10805 10802 10800 10797 10795 10795 10794 10794 10793 10791 10788 10786 10785 10785 10784 10782 10782 10781 10780 10780 10780 10779 10778 10777 10776 10775
10881 10876 10871 10869 10866 10864 10860 10856 10851 10845 10839 10833 10828 10824 10824 10822 10818 10817 10814 10812 10810 10808 10806 10803 10800 10796 10794 10792 10789 10786 10784 10783 10782 10781 10780 10778 10777 10776 10776 10775 10774 10773 10772 10772 10772 10772 10771 10769 10769
10874 10871 10865 10863 10860 10857 10855 10853 10849 10844 10838 10831 10824 10820 10816 10814 10812 10809 10807 10806 10805 10803 10799 10796 10794 10793 10790 10787 10784 10781 10778 10775 10773 10773 10772 10771 10771 10769 10767 10766 10766 10764 10763 10762 10763 10763 10764 10763 10762
10866 10864 10862 10859 10854 10850 10846 10847 10842 10838 10834 10828 10823 10816 10811 10809 10805 10802 10799 10797 10796 10794 10793 10789 10785 10783 10783 10779 10779 10776 10771 10767 10766 10764 10763 10762 10761 10760 10759 10759 10757 10755 10753 10752 10752 10753 10753 10754 10754
10859 10856 10855 10853 10851 10843 10839 10837 10836 10832 10827 10821 10816 10812 10808 10805 10802 10798 10794 10791 10788 10786 10784 10782 10779 10773 10770 10769 10767 10767 10764 10762 10759 10757 10756 10756 10754 10752 10750 10749 10747 10746 10745 10744 10743 10742 10742 10743 10743
10850 10850 10848 10845 10845 10839 10831 10828 10830 10824 10820 10814 10810 10806 10801 10798 10795 10792 10789 10786 10783 10778 10775 10774 10773 10773 10770 10766 10764 10761 10759 10756 10752 10750 10748 10745 10744 10743 10741 10739 10737 10735 10735 10735 10734 10733 10733 10733 10733
10843 10838 10839 10837 10835 10830 10826 10820 10819 10816 10813 10807 10802 10800 10795 10790 10786 10783 10780 10780 10776 10773 10768 10765 10764 10762 10761 10758 10755 10754 10752 10750 10746 10744 10741 10739 10736 10734 10732 10730 10727 10727 10726 10725 10725 10724 10724 10723 10723
10836 10829 10828 10829 10827 10822 10817 10814 10811 10808 10804 10800 10793 10790 10787 10784 10777 10773 10770 10768 10767 10764 10760 10756 10753 10751 10749 10747 10745 10743 10742 10741 10738 10734 10732 10730 10728 10726 10724 10723 10721 10719 10717 10715 10714 10713 10712 10712 10713
10827 10822 10817 10820 10816 10812 10807 10803 10801 10800 10796 10791 10787 10782 10777 10774 10770 10764 10759 10757 10756 10754 10752 10748 10744 10741 10738 10734 10732 10731 10728 10727 10725 10723 10721 10718 10716 10714 10712 10710 10708 10706 10705 10704 10703 10702 10701 10701 10702
10817 10812 10808 10805 10809 10798 10799 10791 10792 10788 10786 10782 10778 10772 10768 10764 10760 10755 10749 10745 10742 10742 10741 10739 10736 10733 10730 10726 10724 10721 10717 10714 10711 10709 10706 10703 10701 10699 10698 10695 10694 10692 10691 10690 10690 10690 10689 10688 10688
10805 10801 10796 10794 10796 10787 10787 10779 10778 10775 10772 10770 10766 10761 10756 10753 10749 10745 10739 10733 10730 10729 10729 10726 10724 10722 10719 10715 10713 10711 10708 10704 10701 10699 10696 10693 10689 10687 10684 10682 10680 10678 10675 10674 10675 10674 10673 10672 10673
10792 10788 10784 10780 10781 10777 10774 10765 10763 10761 10758 10758 10753 10750 10744 10740 10737 10733 10728 10724 10720 10717 10714 10710 10709 10709 10707 10703 10700 10698 10695 10692 10689 10686 10683 10679 10676 10674 10670 10667 10665 10665 10661 10659 10658 10656 10654 10652 10651
10777 10775 10771 10769 10766 10764 10763 10753 10748 10745 10744 10741 10740 10738 10733 10728 10724 10719 10714 10709 10705 10702 10698 10695 10692 10690 10689 10688 10686 10683 10680 10677 10673 10670 10668 10666 10663 10661 10657 10654 10651 10649 10647 10643 10642 10641 10640 10637 10631
10763 10758 10758 10753 10752 10747 10747 10748 10729 10726 10727 10724 10724 10723 10717 10713 10710 10706 10702 10698 10694 10689 10681 10677 10675 10670 10667 10665 10665 10663 10660 10659 10656 10652 10649 10649 10646 10643 10639 10635 10632 10629 10627 10624 10621 10619 10618 10617 10613
10746 10738 10737 10738 10735 10735 10726 10727 10726 10707 10702 10701 10703 10705 10700 10696 10691 10688 10686 10683 10680 10675 10669 10665 10660 10655 10651 10645 10640 10640 10639 10636 10634 10632 10630 10627 10626 10624 10619 10615 10611 10608 10604 10601 10599 10597 10595 10592 10589
10725 10721 10718 10719 10715 10719 10707 10706 10710 10692 10684 10683 10680 10684 10682 10678 10672 10670 10667 10665 10664 10660 10654 10650 10646 10642 10637 10633 10628 10621 10616 10614 10611 10608 10607 10605 10603 10601 10598 10593 10589 10585 10582 10578 10575 10573 10570 10568 10564
10706 10702 10700 10703 10696 10698 10693 10690 10684 10675 10669 10663 10664 10665 10664 10660 10653 10652 10650 10646 10646 10644 10638 10634 10630 10625 10620 10616 10614 10610 10603 10597 10593 10590 10586 10583 10579 10576 10574 10570 10567 10563 10559 10555 10551 10549 10546 10542 10539
10687 10684 10680 10683 10681 10680 10674 10674 10668 10661 10652 10646 10650 10653 10648 10642 10638 10632 10628 10627 10626 10624 10619 10614 10611 10606 10603 10599 10596 10592 10586 10581 10576 10571 10566 10562 10558 10553 10550 10548 10544 10540 10536 10531 10527 10524 10518 10514 10509
10673 10669 10663 10663 10667 10665 10660 10657 10651 10641 10632 10633 10639 10639 10631 10627 10623 10616 10610 10608 10604 10602 10599 10595 10590 10585 10581 10579 10576 10573 10566 10561 10558 10553 10548 10542 10537 10533 10527 10523 10519 10516 10512 10506 10502 10496 10491 10485 10481
10654 10650 10648 10644 10649 10650 10649 10645 10635 10623 10620 10623 10625 10623 10616 10611 10606 10601 10595 10589 10585 10580 10578 10576 10571 10565 10562 10561 10556 10551 10546 10542 10537 10531 10526 10521 10515 10510 10505 10500 10494 10489 10486 10480 10474 10469 10463 10455 10449
10635 10635 10629 10628 10628 10632 10636 10634 10613 10611 10612 10612 10611 10605 10599 10594 10588 10581 10576 10571 10567 10562 10559 10556 10551 10546 10541 10541 10535 10529 10524 10520 10514 10508 10503 10498 10492 10486 10479 10474 10467 10462 10456 10449 10443 10436 10430 10423 10415
10622 10618 10612 10608 10610 10608 10614 10622 10592 10594 10594 10594 10590 10585 10580 10575 10569 10561 10556 10551 10547 10543 10538 10533 10530 10526 10523 10519 10514 10506 10500 10496 10490 10484 10479 10473 10466 10458 10451 10443 10435 10428 10424 10418 10412 10403 10396 10388 10378